Theta_e
307 307 307 308 308 308 307 308 309 309 309 309 311 312 313 314 314 315 316 316 315 315 313 314 310 311 310
306 307 306 307 308 309 308 308 308 308 308 307 308 311 311 311 314 313 313 314 314 314 314 313 312 311 309
307 307 307 307 307 309 307 307 308 307 307 307 307 307 308 310 311 312 311 313 313 314 314 312 311 308 307
307 307 307 307 307 307 307 307 306 305 306 306 306 306 305 307 308 308 308 310 311 312 312 307 306 306 304
307 307 307 306 306 306 306 305 305 303 302 302 302 302 302 303 303 303 305 306 306 306 305 306 305 303 302
306 306 305 305 305 305 304 304 303 301 300 299 300 300 300 300 300 299 300 300 302 303 303 302 301 300 299
304 304 304 304 304 304 303 302 300 299 298 298 297 297 298 298 297 297 297 297 297 297 297 297 295 291 291
302 301 301 301 301 301 300 299 297 297 296 296 296 295 296 295 292 290 289 289 289 289 290 289 289 289 289
297 295 296 297 297 296 296 296 295 293 292 292 294 293 292 291 291 291 291 293 293 293 291 290 289 289 289
292 292 292 292 290 289 290 292 291 290 291 290 292 290 289 289 290 290 289 288 288 288 288 288 288 288 288
292 291 291 290 290 290 290 290 290 289 288 288 288 288 289 289 289 288 288 288 288 288 288 287 287 287 286
290 290 289 289 289 289 289 289 289 289 288 288 288 288 288 288 288 287 287 286 286 286 286 286 286 285 285
290 290 289 289 288 288 288 287 287 287 287 287 287 286 286 286 286 286 286 287 287 286 285 285 285 286 286
288 288 288 288 288 287 287 286 286 286 286 286 286 286 286 286 286 285 285 284 285 284 284 284 284 284 283
290 290 289 288 288 287 286 286 285 285 284 284 283 283 283 283 283 282 282 282 281 282 282 282 282 282 282
287 285 285 284 284 283 283 283 282 282 282 282 282 282 282 281 281 281 281 281 281 281 281 281 282 282 282
284 284 283 282 282 282 282 281 281 281 281 281 281 281 281 281 281 281 281 281 281 281 281 281 282 282 283
Wind_Speed
25 24 23 18 20 21 20 21 23 24 25 26 28 22 23 22 21 19 20 20 20 17 30 35 26 27 30
21 22 21 21 21 20 21 24 22 22 23 22 22 16 23 26 21 23 25 22 18 16 33 42 36 36 36
21 20 20 19 19 18 24 24 20 21 22 20 19 21 19 17 19 15 13 17 22 22 28 33 39 39 36
18 19 19 17 19 19 20 14 15 19 20 21 19 18 21 16 16 16 18 19 23 26 35 34 29 29 24
11 12 15 15 12 12 15 15 16 17 17 17 15 13 13 13 9 11 12 15 17 18 18 21 22 19 19
10 12 13 7 10 13 12 12 12 14 16 16 14 15 17 15 10 8 7 8 12 16 20 21 19 16 13
4 4 5 6 6 8 7 8 9 10 9 9 10 9 9 8 7 7 7 7 8 8 9 8 5 3 5
9 9 8 7 5 4 4 4 3 3 2 4 3 1 1 1 4 6 6 5 4 3 3 4 5 8 10
13 13 11 11 12 12 12 9 7 7 7 6 6 5 4 3 1 1 2 5 6 6 7 8 8 9 10
13 13 13 13 12 10 9 7 5 3 3 3 3 4 4 4 4 5 5 5 6 8 9 10 12 14 15
11 11 10 9 9 8 8 7 7 5 2 3 2 3 3 4 5 5 6 9 10 12 14 16 18 21 23
8 8 8 7 8 7 7 7 6 4 4 6 7 8 9 11 11 11 13 14 16 18 21 22 23 24 24
6 7 7 8 9 9 9 8 8 8 8 9 10 11 13 14 16 18 20 20 22 20 19 22 26 27 29
7 8 9 9 10 10 9 9 9 10 11 12 14 15 16 16 17 18 17 16 20 21 24 25 25 25 26
8 10 11 11 11 11 11 11 12 13 13 12 11 12 13 13 13 12 12 15 16 19 22 24 22 21 22
11 10 9 8 9 8 9 9 9 10 11 12 13 12 11 9 10 12 12 17 18 19 20 23 26 22 22
8 7 7 7 7 8 9 9 10 11 12 14 15 16 17 18 13 13 17 17 19 20 20 22 26 26 25
Wind_Direction
285 292 287 284 287 294 305 295 298 293 286 294 281 277 272 264 269 268 264 244 260 263 225 205 202 220 212
285 283 287 288 288 284 291 293 294 300 297 294 286 277 274 273 264 261 257 257 254 241 228 229 228 218 229
282 296 298 295 290 284 298 294 289 289 287 282 292 282 273 259 266 256 266 268 245 237 218 199 205 201 205
287 287 297 298 292 288 299 293 299 279 272 276 282 277 281 261 250 256 258 250 221 217 213 197 201 211 217
288 294 297 292 294 296 300 296 302 282 266 261 267 271 268 278 270 244 225 224 220 222 221 226 235 231 227
287 290 294 300 304 307 304 286 294 299 281 267 267 269 268 263 256 258 251 247 247 245 246 245 236 233 244
337 311 318 319 313 317 316 312 298 301 305 298 291 283 275 273 268 266 264 258 253 246 248 257 274 315 272
63 62 53 41 33 30 34 27 9 6 7 15 44 75 177 151 46 32 22 17 358 328 298 269 252 246 243
60 60 58 63 70 65 75 75 60 58 50 42 19 13 22 28 350 290 280 274 275 275 270 265 259 253 256
62 58 56 57 59 53 54 53 30 14 32 16 344 344 342 337 301 290 264 234 239 255 263 264 268 271 274
55 59 58 55 52 48 41 37 35 55 63 10 343 318 315 321 320 306 275 276 275 276 275 272 276 280 279
52 50 43 35 29 17 7 1 357 350 327 317 310 304 299 297 295 284 281 283 282 280 279 278 278 279 279
17 9 4 356 350 341 335 329 323 314 305 301 300 297 295 294 290 291 297 293 292 288 285 285 288 287 287
352 350 344 331 322 318 315 308 301 302 303 301 301 300 297 296 296 297 297 301 295 298 297 295 294 292 290
331 323 317 314 315 319 318 319 319 319 321 323 326 324 321 316 312 311 316 310 307 304 303 302 301 300 298
323 322 327 334 347 348 346 347 349 351 351 350 347 346 344 352 336 338 334 331 323 318 315 310 310 312 309
334 340 354 7 7 8 16 19 16 8 358 354 351 351 349 347 350 356 342 334 324 316 314 311 308 313 311